When you browse on this site, cookies collect data to enhance your experience and personalize the content and advertising you see.
Visit our Privacy Policy to learn more. By continuing to use the site, you agree to this use of cookies and data.
  • In Hungary
  • List of Countries
  • For 7 days
  • Water Temperature
  • Satellite Maps
  • Weather Map
  • News
  • Weather Widgets
  • user-avatar
    Login

    Hourly Weather Bobrowa

    Today, 21 January, Monday

    Time Temperature Precipitation Wind Pressure Humidity
    00:00 -3°C° 0 mm 1 mps 745 mmHg 75%
    01:00 -4°C° 0 mm 1 mps 746 mmHg 78%
    02:00 -4°C° 0 mm 1 mps 746 mmHg 78%
    03:00 -4°C° 0 mm 1 mps 746 mmHg 79%
    04:00 -4°C° 0 mm 1 mps 746 mmHg 80%
    05:00 -4°C° 0 mm 1 mps 746 mmHg 80%
    06:00 -4°C° 0 mm 1 mps 746 mmHg 80%
    07:00 -6°C° 0 mm 1 mps 746 mmHg 83%
    08:00 -4°C° 0 mm 1 mps 746 mmHg 80%
    09:00 -3°C° 0 mm 1 mps 746 mmHg 77%
    10:00 -3°C° 0 mm 1 mps 746 mmHg 74%
    11:00 -2°C° 0 mm 1 mps 746 mmHg 71%
    12:00 -1°C° 0 mm 1 mps 746 mmHg 68%
    13:00 -2°C° 0 mm 1 mps 746 mmHg 69%
    14:00 -2°C° 0 mm 1 mps 746 mmHg 71%
    15:00 -2°C° 0 mm 1 mps 745 mmHg 73%
    16:00 -2°C° 0 mm 1 mps 745 mmHg 75%
    17:00 -3°C° 0 mm 1 mps 745 mmHg 76%
    18:00 -3°C° 0 mm 1 mps 745 mmHg 77%
    19:00 -3°C° 0 mm 1 mps 745 mmHg 78%
    20:00 -3°C° 0 mm 1 mps 744 mmHg 79%
    21:00 -5°C° 0 mm 2 mps 744 mmHg 79%
    22:00 -6°C° 0 mm 2 mps 744 mmHg 80%
    23:00 -6°C° 0 mm 2 mps 744 mmHg 80%

    Tomorrow, 22 January, Tuesday

    Time Temperature Precipitation Wind Pressure Humidity
    00:00 -6°C° 0 mm 2 mps 744 mmHg 80%
    01:00 -6°C° 0 mm 2 mps 743 mmHg 80%
    02:00 -6°C° 0 mm 2 mps 743 mmHg 79%
    03:00 -6°C° 0 mm 2 mps 743 mmHg 79%
    04:00 -6°C° 0 mm 2 mps 742 mmHg 78%
    05:00 -6°C° 0 mm 2 mps 742 mmHg 79%
    06:00 -6°C° 0 mm 2 mps 742 mmHg 79%
    07:00 -6°C° 0 mm 2 mps 741 mmHg 80%
    08:00 -6°C° 0 mm 2 mps 741 mmHg 77%
    09:00 -5°C° 0 mm 2 mps 741 mmHg 74%
    10:00 -4°C° 0 mm 2 mps 741 mmHg 72%
    11:00 -4°C° 0 mm 2 mps 741 mmHg 68%
    12:00 -3°C° 0 mm 2 mps 740 mmHg 65%
    13:00 -2°C° 0 mm 2 mps 739 mmHg 61%
    14:00 -3°C° 0 mm 2 mps 739 mmHg 64%
    15:00 -1°C° 0 mm 1 mps 739 mmHg 67%
    16:00 -1°C° 0 mm 1 mps 738 mmHg 71%
    17:00 -4°C° 0 mm 2 mps 738 mmHg 73%
    18:00 -4°C° 0 mm 2 mps 738 mmHg 76%
    19:00 -5°C° 0 mm 2 mps 738 mmHg 79%
    20:00 -5°C° 0 mm 2 mps 737 mmHg 80%
    21:00 -5°C° 0 mm 2 mps 737 mmHg 80%
    22:00 -6°C° 0 mm 2 mps 737 mmHg 80%
    23:00 -6°C° 0 mm 2 mps 736 mmHg 81%

    Day after tomorrow, 23 January, Wednesday

    Time Temperature Precipitation Wind Pressure Humidity
    00:00 -7°C° 0 mm 3 mps 736 mmHg 82%
    01:00 -7°C° 0 mm 3 mps 736 mmHg 83%
    02:00 -8°C° 0 mm 3 mps 735 mmHg 85%
    03:00 -8°C° 0 mm 3 mps 735 mmHg 87%
    04:00 -8°C° 0 mm 3 mps 735 mmHg 89%
    05:00 -8°C° 0 mm 3 mps 735 mmHg 88%
    06:00 -8°C° 0 mm 3 mps 735 mmHg 87%
    07:00 -8°C° 0 mm 3 mps 735 mmHg 87%
    08:00 -9°C° 0 mm 4 mps 735 mmHg 83%
    09:00 -8°C° 0 mm 4 mps 735 mmHg 80%
    10:00 -8°C° 0 mm 4 mps 735 mmHg 77%
    11:00 -7°C° 0 mm 4 mps 735 mmHg 75%
    12:00 -7°C° 0 mm 4 mps 734 mmHg 73%
    13:00 -5°C° 0 mm 4 mps 734 mmHg 71%
    14:00 -5°C° 0 mm 4 mps 734 mmHg 72%
    15:00 -7°C° 0 mm 4 mps 734 mmHg 74%
    16:00 -7°C° 0 mm 4 mps 734 mmHg 75%
    17:00 -7°C° 0 mm 4 mps 735 mmHg 76%
    18:00 -7°C° 0 mm 4 mps 735 mmHg 76%
    19:00 -7°C° 0 mm 4 mps 736 mmHg 77%
    20:00 -8°C° 0 mm 4 mps 736 mmHg 77%
    21:00 -8°C° 0 mm 4 mps 736 mmHg 78%
    22:00 -8°C° 0 mm 4 mps 737 mmHg 79%
    23:00 -8°C° 0 mm 4 mps 737 mmHg 78%

    24 January, Thursday

    Time Temperature Precipitation Wind Pressure Humidity
    00:00 -8°C° 0 mm 4 mps 737 mmHg 78%
    01:00 -8°C° 0 mm 4 mps 738 mmHg 77%
    02:00 -9°C° 0 mm 4 mps 738 mmHg 77%
    03:00 -9°C° 0 mm 4 mps 738 mmHg 77%
    04:00 -8°C° 0 mm 3 mps 738 mmHg 77%
    05:00 -8°C° 0 mm 3 mps 739 mmHg 78%
    06:00 -8°C° 0 mm 3 mps 739 mmHg 79%
    07:00 -7°C° 0 mm 2 mps 739 mmHg 80%
    08:00 -7°C° 0 mm 3 mps 740 mmHg 78%
    09:00 -7°C° 0 mm 3 mps 740 mmHg 76%
    10:00 -7°C° 0 mm 3 mps 740 mmHg 74%
    11:00 -6°C° 0 mm 3 mps 740 mmHg 73%
    12:00 -6°C° 0 mm 3 mps 740 mmHg 71%
    13:00 -5°C° 0 mm 3 mps 740 mmHg 70%
    14:00 -6°C° 0 mm 3 mps 741 mmHg 71%
    15:00 -6°C° 0 mm 3 mps 741 mmHg 72%
    16:00 -6°C° 0 mm 3 mps 741 mmHg 73%
    17:00 -6°C° 0 mm 3 mps 741 mmHg 75%
    18:00 -5°C° 0 mm 2 mps 742 mmHg 77%
    19:00 -6°C° 0 mm 2 mps 742 mmHg 79%
    20:00 -6°C° 0 mm 2 mps 742 mmHg 81%
    21:00 -4°C° 0 mm 1 mps 742 mmHg 82%
    22:00 -4°C° 0 mm 1 mps 743 mmHg 84%
    23:00 -4°C° 0 mm 1 mps 743 mmHg 84%

    25 January, Friday

    Time Temperature Precipitation Wind Pressure Humidity
    00:00 -6°C° 0 mm 1 mps 743 mmHg 85%
    01:00 -6°C° 0 mm 1 mps 742 mmHg 86%
    02:00 -6°C° 0 mm 1 mps 742 mmHg 87%
    03:00 -6°C° 0 mm 1 mps 742 mmHg 88%
    04:00 -6°C° 0 mm 1 mps 742 mmHg 88%
    05:00 -6°C° 0 mm 1 mps 742 mmHg 89%
    06:00 -6°C° 0 mm 1 mps 742 mmHg 89%
    07:00 -7°C° 0 mm 1 mps 742 mmHg 90%
    08:00 -6°C° 0 mm 1 mps 742 mmHg 87%
    09:00 -6°C° 0 mm 1 mps 743 mmHg 83%
    10:00 -5°C° 0 mm 0 mps 743 mmHg 80%
    11:00 -5°C° 0 mm 0 mps 742 mmHg 77%
    12:00 -4°C° 0 mm 0 mps 742 mmHg 74%
    13:00 -4°C° 0 mm 0 mps 742 mmHg 71%
    14:00 -4°C° 0 mm 0 mps 742 mmHg 71%
    15:00 -4°C° 0 mm 0 mps 742 mmHg 72%
    16:00 -4°C° 0 mm 0 mps 742 mmHg 72%
    17:00 -4°C° 0 mm 0 mps 742 mmHg 74%
    18:00 -4°C° 0 mm 0 mps 742 mmHg 76%
    19:00 -4°C° 0 mm 1 mps 742 mmHg 78%
    20:00 -4°C° 0 mm 1 mps 742 mmHg 79%
    21:00 -4°C° 0 mm 1 mps 742 mmHg 80%
    22:00 -4°C° 0 mm 1 mps 742 mmHg 81%
    23:00 -4°C° 0 mm 1 mps 741 mmHg 82%

    26 January, Saturday

    Time Temperature Precipitation Wind Pressure Humidity
    00:00 -7°C° 0 mm 2 mps 741 mmHg 83%
    01:00 -7°C° 0 mm 2 mps 741 mmHg 84%
    02:00 -7°C° 0 mm 2 mps 740 mmHg 84%
    03:00 -7°C° 0 mm 2 mps 740 mmHg 85%
    04:00 -8°C° 0 mm 3 mps 739 mmHg 85%
    05:00 -8°C° 0 mm 3 mps 739 mmHg 83%
    06:00 -8°C° 0 mm 3 mps 738 mmHg 82%
    07:00 -9°C° 0 mm 4 mps 738 mmHg 80%
    08:00 -8°C° 0 mm 4 mps 738 mmHg 75%
    09:00 -7°C° 0 mm 4 mps 737 mmHg 70%
    10:00 -7°C° 0 mm 5 mps 737 mmHg 65%
    11:00 -6°C° 0 mm 5 mps 736 mmHg 64%
    12:00 -5°C° 0 mm 5 mps 736 mmHg 62%
    13:00 -4°C° 0 mm 5 mps 735 mmHg 61%
    14:00 -4°C° 0 mm 5 mps 734 mmHg 66%
    15:00 -2°C° 0 mm 5 mps 734 mmHg 72%
    16:00 -2°C° 0 mm 5 mps 733 mmHg 77%
    17:00 -2°C° 0.2 mm 5 mps 733 mmHg 80%
    18:00 -2°C° 0.2 mm 5 mps 733 mmHg 83%
    19:00 -3°C° 0.2 mm 6 mps 732 mmHg 85%
    20:00 -3°C° 0.1 mm 6 mps 732 mmHg 86%
    21:00 -2°C° 0.1 mm 6 mps 731 mmHg 86%
    22:00 -2°C° 0.1 mm 6 mps 731 mmHg 86%
    23:00 -2°C° 0.1 mm 6 mps 730 mmHg 87%
    Show more